Location: Earls Croome
(52.0667°N, 2.2000°W)
Time: 13:57:42
(UTC+00:00)

Cosmos 1980 Rocket - Pass Details

Date: 17 November 2019
Orbit: 828 x 851 km, 71.0° (Epoch: 14 December)

Event Time Altitude Azimuth Distance (km) Brightness Sun altitude
Exits shadow 05:01:38 23° 209° (SSW) 1,713 3.5 -22.7°
Drops below altitude 10° 05:04:10 10° 191° (S) 2,468 4.5 -22.3°
Sets 05:06:48 0° 182° (S) 3,396 5.4 -21.9°
